Regional Weather Roundup
Issued by NWS Upton, NY

Current Version | Previous Version | Graphics & Text | Print | Product List | Glossary Off
Versions: 1 2 3 4 5 6 7 8 9 10 11 12 13 14 15 16 17 18 19 20 21 22 23 24 25 26 27 28 29 30 31 32 33 34 35 36 37 38 39 40 41 42 43 44 45 46 47 48 49 50

000
ASUS41 KOKX 280804
RWROKX

REGIONAL WEATHER ROUNDUP
NATIONAL WEATHER SERVICE NEW YORK NY
400 AM EDT SUN AUG 28 2016

NOTE: "FAIR" INDICATES FEW OR NO CLOUDS BELOW 12,000 FEET WITH NO
SIGNIFICANT WEATHER AND/OR OBSTRUCTIONS TO VISIBILITY.

NYZ071-072-176-178-NJZ106-104-280900-
NEW YORK CITY METRO AREA

CITY           SKY/WX    TMP DP  RH WIND       PRES   REMARKS
Central Park   CLEAR     73  64  73 CALM      30.25R
LaGuardia APRT PTCLDY    75  68  78 SE5       30.21R
Kennedy INTL   PTCLDY    73  66  78 E3        30.22S
Newark/Liberty MOCLDY    72  69  90 CALM      30.21S
Bronx Bot Gard   N/A     72  64  78 SE3       30.24R
Wall St Helipt SUNNY     75  70  83 CALM      30.22S
Teterboro      CLEAR     69  62  78 N3        30.21R
$$

NYZ177-179-078>081-280900-
LONG ISLAND NEW YORK

CITY           SKY/WX    TMP DP  RH WIND       PRES   REMARKS
Farmingdale    CLEAR     70  67  90 CALM      30.22S
MacArthur/ISP  CLEAR     68  66  93 CALM      30.22R
Shirley        CLEAR     64  63  96 CALM      30.23S
Riverhead      NOT AVBL
Westhampton    CLEAR     59  57  93 CALM      30.25R
Southampton      N/A     70  66  88 S3        30.19S
Bridgehampton    N/A     66  63  88 CALM      30.22S
East Hampton   FAIR      60  59  95 CALM      30.23R
Montauk          N/A     68  64  87 E3        30.25R
$$

NYZ052-065-067-280900-
HUDSON VALLEY

CITY           SKY/WX    TMP DP  RH WIND       PRES   REMARKS
White Plains   CLEAR     66  62  87 CALM      30.23R
Newburgh       CLEAR     66  63  88 CALM      30.24R
Montgomery     PTCLDY    62  61  96 CALM      30.22S
Poughkeepsie   PTCLDY    62  60  93 CALM      30.21R
Albany         PTCLDY    66  64  93 CALM      30.20S
$$

NJZ001-105-106-008-010-013-015-019>022-104-280900-
NEW JERSEY

CITY           SKY/WX    TMP DP  RH WIND       PRES   REMARKS
Newark/Liberty MOCLDY    72  69  90 CALM      30.21S
Teterboro      CLEAR     69  62  78 N3        30.21R
Caldwell       CLEAR     65  61  87 CALM      30.23S
Morristown     CLEAR     59  57  94 CALM      30.23R
Somerville     PTCLDY    62  59  90 NW3       30.20S
Linden         FAIR      71  65  83 CALM      30.23S
Sussex         CLEAR     61  60  97 CALM      30.23R
Abdover          N/A     60  58  92 CALM      30.24R
Trenton        PTCLDY    66  62  87 CALM      30.21S
Millville      CLEAR     65  65 100 CALM      30.20S FOG
Atlantic City  CLEAR     67  65  93 CALM      30.20S
Wrightstown    NOT AVBL
Toms River     PTCLDY    60  58  92 CALM      30.22R
Belmar         CLEAR     70  68  93 SE6       30.22S
$$

PAZ047>061-062-071-280900-
EASTERN PENNSYLVANIA

CITY           SKY/WX    TMP DP  RH WIND       PRES   REMARKS
Philadelphia   PTCLDY    71  68  90 CALM      30.21S
Allentown      CLEAR     64  60  87 N3        30.23R
Scranton       CLEAR     67  59  75 CALM      30.23R
$$

CTZ002-004>006-009-010-012-RIZ004-006-007-MAZ004-011-015-280900-
SOUTHERN NEW ENGLAND
 IN CT

CITY           SKY/WX    TMP DP  RH WIND       PRES   REMARKS
Bradley INTL   CLEAR     67  60  78 S5        30.23S
Hartford       CLOUDY    69  65  86 CALM      30.23R
Danbury        CLEAR     60  58  92 CALM      30.25R
Wtrbury/Oxford   N/A     64  57  77 CALM      30.26S
Bridgeport     CLEAR     72  66  81 CALM      30.22S
Meriden        CLOUDY    64  61  90 CALM      30.23S
New Haven      CLEAR     66  64  93 N3        30.23S
Chester        FAIR      68  66  94 CALM      30.25S
Groton         MOCLDY    68  65  90 CALM      30.24R
Wilimantic     CLEAR     64  62  93 CALM      30.26R

 IN RI

CITY           SKY/WX    TMP DP  RH WIND       PRES   REMARKS
Providence     CLEAR     67  63  87 CALM      30.25S
Block Island   CLEAR     68  63  84 SE6       30.25R
Westerly       CLEAR     64  60  87 CALM      30.25S
 IN MA

CITY           SKY/WX    TMP DP  RH WIND       PRES   REMARKS
Boston         MOCLDY    69  65  86 SE5       30.25S
Worcester      PTCLDY    64  62  93 SW7       30.26F
Westfield      CLEAR     63  62  97 CALM      30.23S
Provincetown   CLEAR     57  55  93 CALM      30.25F
Nantucket      CLEAR     60  57  89 NE3       30.24S
$$

ANZ330-335-338-340-345-350-353-355-280900-
COASTAL MARINE OBSERVATIONS


STATION/POSITION TIME  SKY/WX   TEMP    WIND        PRES    VSBY  WAVE
                                AIR SEA DIR/SP/G                  HT/PER
                 (UTC)          (F)     (DEG/KT/KT) (MB)    (MI)  (FT/S)
NY HARB ENTRANCE 0650            75 75  130/ 10/ 12 1022.5          2/ 9
20S FIRE ISLAND  0650            76 74  120/ 10/ 12 1022.6          2/ 9
GREAT SOUTH BAY  0700            75 79  120/  8/ 10   N/A
23 SSW MONTAUK P 0650            74 77  130/ 10/ 12 1023.9          2/ 9
15 E BARNEGAT LI 0700               76                N/A           3/ 5
HUDSON CANYON    0650            78 78              1022.5          3/ 9
KINGS POINT      0700            72 77              1022.9
EXECUTION ROCKS  0700            73     110/  4/  4   N/A
CENTRAL LI SOUND 0700            74 76  130/  8/ 10   N/A           1
EASTERN LI SOUND 0700            71 71  100/  6/  6   N/A
ROBBINS REEF     0706            75     150/  7/  8 1022.3
$$


>>>>>>>>>>>>>>>>>>>>>>>>>>>> KEY <<<<<<<<<<<<<<<<<<<<<<<<<<<
>                                                          <
>     SKY/WX - Sky Condition/Present Weather               <
>     TMP    - Temperature in Fahrenheit                   <
>     DP     - Dew Point in Fahrenheit                     <
>     RH     - Relative Humidity in Percent                <
>     WIND   - Direction (from) and Speed in MPH           <
>     PRES   - Mean Sea Level Pressure (inches of Hg)      <
>     WCI    - Wind Chill Index                            <
>     VSB    - VISIBILITY IN MILES                         <
>     HX     - HEAT INDEX                                  <
>     TC     - TEMPERATURE IN CELSIUS                      <
>     VRB    - VARIABLE WIND DIRECTION                     <
>                                                          <
>>>>>>>>>>>>>>>>>>>>>>>>>>>> KEY <<<<<<<<<<<<<<<<<<<<<<<<<<<



USA.gov is the U.S. government's official web portal to all federal, state and local government web resources and services.